Regional Weather Roundup
Issued by NWS

Home | Current Version | Previous Version | Text Only | Print | Product List | Glossary On
Versions: 1 2 3 4 5 6 7 8 9 10 11 12 13 14 15 16 17 18 19 20 21 22 23 24 25 26 27 28 29 30 31 32 33 34 35 36 37 38 39 40 41 42 43 44 45 46 47 48 49 50
000
ASUS43 KMKX 021300
RWRWI

WISCONSIN REGIONAL WEATHER ROUNDUP
NATIONAL WEATHER SERVICE MILWAUKEE/SULLIVAN WI
800 AM CDT THU OCT 02 2014

NOTE: "FAIR" INDICATES FEW OR NO CLOUDS BELOW 12,000 FEET WITH NO
SIGNIFICANT WEATHER AND/OR OBSTRUCTIONS TO VISIBILITY.

WIZ001-002-006>008-014>016-023>028-021400-
NORTHWEST WISCONSIN

CITY           SKY/WX    TMP DP  RH WIND       PRES   REMARKS
SUPERIOR ARPT  CLOUDY    54  53  97 CALM      29.85R
ASHLAND        CLOUDY    56  54  93 CALM      29.86S FOG
HAYWARD        CLOUDY    56  55  97 CALM      29.85S FOG
SIREN          CLOUDY    55  54  98 CALM      29.85S FOG
CUMBERLAND     FOG       54  54 100 CALM      29.86R VSB<1/4
RICE LAKE      CLOUDY    55  54  96 CALM      29.87R FOG
CHETEK         FOG       53  53 100 CALM      29.85R VSB 1/2
LADYSMITH      CLOUDY    55  54  97 E3        29.88R FOG
EAU CLAIRE     NOT AVBL
MENOMONIE      CLOUDY    57  56  96 CALM      29.85R FOG
NEW RICHMOND   CLOUDY    56  56 100 CALM      29.85S FOG
OSCEOLA        CLOUDY    56  56 100 CALM      29.88R FOG
$$

WIZ003>005-009-010-017-018-021400-
NORTH CENTRAL WISCONSIN

CITY           SKY/WX    TMP DP  RH WIND       PRES   REMARKS
MANITOWISH WTR CLOUDY    53  53 100 CALM      29.87R FOG
ARBOR VITAE    FOG       55  53  94 CALM      29.88R VSB 1/2
WOODRUFF       FOG       55  53  94 CALM      29.88R VSB 1/2
RHINELANDER    FOG       50  50 100 CALM      29.88R VSB 1/4
EAGLE RIVER    FOG       52  52 100 CALM      29.88R VSB 1/4
LAND O LAKES   FOG       53  53 100 CALM      29.89R VSB 1/4
PHILLIPS       CLOUDY    52  52 100 CALM      29.86S FOG
TOMAHAWK       CLOUDY    49  49  97 CALM      29.88R FOG
MEDFORD        CLOUDY    52  51  99 CALM      29.86R FOG
MERRILL        CLOUDY    54  53  99 CALM      29.86S FOG
$$

WIZ029-030-035-036-043>047-021400-
CENTRAL WISCONSIN

CITY           SKY/WX    TMP DP  RH WIND       PRES   REMARKS
WAUSAU         MOCLDY    54  53  97 E3        29.86R FOG
MOSINEE        PTSUNNY   54  54 100 E5        29.87R FOG
MARSHFIELD     PTCLDY    54  52  93 E3        29.86R FOG
STEVENS POINT  CLOUDY    53  53  99 E3        29.87R FOG
WAUPACA        CLOUDY    58  56  96 CALM      29.87R FOG
WAUTOMA        NOT AVBL
WISC RAPIDS    CLOUDY    57  55  93 E3        29.86S FOG
CAMP DOUGLAS   NOT AVBL
$$

WIZ011>013-019>022-031-037>040-048>050-021400-
NORTHEAST WISCONSIN

CITY           SKY/WX    TMP DP  RH WIND       PRES   REMARKS
ANTIGO         CLOUDY    51  51 100 SE6       29.87S FOG
SHAWANO        CLOUDY    57  55  93 CALM      29.88R FOG
OCONTO         CLOUDY    56  56 100 CALM      29.86S
STURGEON BAY   NOT AVBL
GREEN BAY      CLOUDY    59  58  96 CALM      29.86S FOG
MANITOWOC      NOT AVBL
APPLETON       CLOUDY    57  57 100 VRB3      29.86S FOG
CLINTONVILLE   CLOUDY    55  54  94 CALM      29.86S FOG
OSHKOSH        CLOUDY    60  57  89 CALM      29.85S
$$

WIZ032>034-041-042-053>061-021400-
SOUTHWEST WISCONSIN

CITY           SKY/WX    TMP DP  RH WIND       PRES   REMARKS
LA CROSSE      CLOUDY    59  56  89 N3        29.83F FOG
SPARTA         CLOUDY    55  55  99 CALM      29.85S FOG
VIROQUA        CLOUDY    61  61 100 CALM      29.85R
BOSCOBEL       CLOUDY    60  58  92 CALM      29.84S FOG
PRAIRIE DU CHI CLOUDY    61  59  93 CALM      29.83S FOG
PLATTEVILLE    CLOUDY    62  59  90 CALM      29.85S
$$

WIZ056-057-062-063-064-067-068-021400-
SOUTH CENTRAL WISCONSIN

CITY           SKY/WX    TMP DP  RH WIND       PRES   REMARKS
REEDSBURG      CLOUDY    59  57  94 CALM      29.85R
BARABOO/DELLS  CLOUDY    59  55  87 CALM      29.85S
LONE ROCK      NOT AVBL
MINERAL POINT  CLOUDY    63  59  88 CALM      29.84S
MADISON        CLOUDY    60  56  86 CALM      29.84S
MIDDLETON      CLOUDY    59  58  94 CALM      29.85S
WATERTOWN      CLOUDY    60  60 100 CALM      29.84S
MONROE         CLOUDY    63  61  94 SW5       29.83S
JANESVILLE     DRIZZLE   64  63  94 CALM      29.83F
$$

WIZ051-052-058>065-066-070>072-021400-
SOUTHEAST WISCONSIN

CITY           SKY/WX    TMP DP  RH WIND       PRES   REMARKS
MILWAUKEE      CLOUDY    63  58  83 S8        29.86S
WAUKESHA       CLOUDY    59  57  94 S6        29.87R
MILWAUKEE/TIMM CLOUDY    61  57  88 S5        29.86S FOG
RACINE         CLOUDY    63  58  83 S12G21    29.88S
BURLINGTON     CLOUDY    58  57  96 CALM      29.86S FOG
KENOSHA        NOT AVBL
FOND DU LAC    CLOUDY    60  57  89 CALM      29.86S
SHEBOYGAN      LGT RAIN  60  57  89 SE3       29.87R FOG
WEST BEND      CLOUDY    59  55  88 CALM      29.86R FOG
JUNEAU         CLOUDY    60  57  90 E5        29.87R
$$

LSZ147-162-021400-
LAKE SUPERIOR

STATION/POSITION TIME  TEMP    WIND        PRES    WAVE
                       AIR SEA DIR/SP/G            HT/PER
                 (UTC) (F)     (DEG/KT/KT) (MB)    (FT/S)
W MID LAKE BUOY  1150   52 50  260/  4/  4 1010.7R   1
DEVILS ISLAND    1200   54     220/  6/  7 1011.0R
SAXON HARBOR     1200   54        CALM     1010.8R
$$

LMZ867-665-643>646-021400-
LAKE MICHIGAN

STATION/POSITION TIME  TEMP    WIND        PRES    WAVE
                       AIR SEA DIR/SP/G            HT/PER
                 (UTC) (F)     (DEG/KT/KT) (MB)    (FT/S)
CHAMBERS ISLAND  1200   57     130/  5/  8 1011.9F
S GREEN BAY BUOY 1200   59                 1012.0F
N MID LAKE BUOY  1150   57 58  130/ 12/ 16 1012.7F   2/ 5
NORTHPORT PIER   1200   57     150/  7/ 10 1012.2F
SISTER BAY       1042          140/  8/ 15   N/A
KEWAUNEE LAKESHO 1200   56     170/  3/  5 1010.7R
SHEBOYGAN LAKESH 1200   59 56  160/ 11/ 12 1011.5R
PORT WASHINGTON  1200   59      CALM  /  1 1011.9R
ATWATER BUOY     1200   60     150/ 10/ 14 1012.1R
MILWAUKEE LAKESH 1200   60     150/  5/  6   N/A
S MID LAKE BUOY  1150   63 62  150/ 14/ 17 1011.9R   3/ 5
KENOSHA   LAKESH 1200   62     170/ 14/ 17 1011.2R
$$

TC  - TEMPERATURE IN CELSIUS
VSB - VISIBILITY IN STATUTE MILES
WCI - WIND CHILL INDEX
HX  - HEAT INDEX



USA.gov is the U.S. government's official web portal to all federal, state and local government web resources and services.